sat.trackr.live / text

‹ back to catalog

STARLINK-37459

NORAD 68814 · 2026-089N

PAYLOAD ACTIVE UNKNOWN

§ Identity

Operator
Country
US
Launch date
2026-04-23
Launch site
AFWTR
Launch vehicle
Mass (kg)
RCS (m²)

Purposes: comms

External: N2YO · Heavens-Above · Gunter

§ Orbital elements

Epoch: 2026-05-25T02:41:08.930688Z

Period
91.42 min
Inclination
97.2847°
Eccentricity
0.0002169
Mean motion
15.75178359 rev/d
Perigee alt
342.7 km
Apogee alt
345.6 km
Semi-major
6,722.3 km
B*
1.2236e-3
RAAN
351.7657°
Arg perigee
64.8570°
Mean anomaly
295.2920°
Rev number
506

§ Raw data

STARLINK-374591 68814U 26089N   26145.11190892  .00186321  00000+0  12236-2 0  99972 68814  97.2847 351.7657 0002169  64.8570 295.2920 15.75178359  5069

JSON: /api/v1/satellites/68814 · /tle

For live sub-satellite position, see the globe view (requires WebGL).

§ Visibility from observer

Set your observer location to see the next 7 days of passes ≥ 10°. The values pass through the URL so the page stays shareable.

No JS? Fill the form by hand. The geolocation button needs JavaScript.